Simultaneous Nadir Overpasses (SNOs) Predictions

Prediction of SNOs between GOES-16 and METOP-C Satellite Orbit:

Table of predicted SNOs for the next 14.0 days since TLE Epoch: 10/26/2019
Index Date Time (GOES-16) GOES-16 Lat,Lon METOP-C Lat,Lon Distance(km) Time Diff (sec)
1 10/26/2019 14:25:11 -0.00, -75.20 -0.30, -74.00 137.83 80
2 10/28/2019 02:46:49 0.00, -75.20 -0.78, -78.58 385.96 80
3 10/29/2019 02:23:30 0.00, -75.20 0.35, -73.59 183.80 80
4 10/30/2019 14:45:02 -0.00, -75.23 0.67, -78.16 334.21 80
5 10/31/2019 14:21:42 -0.00, -75.23 -0.46, -73.16 235.75 80
6 11/02/2019 02:43:22 0.01, -75.24 -0.55, -77.76 287.17 80
7 11/03/2019 02:20:02 0.01, -75.25 0.57, -72.77 283.15 80
8 11/04/2019 14:41:35 -0.01, -75.28 0.45, -77.33 233.76 80
9 11/05/2019 14:18:15 -0.00, -75.29 -0.68, -72.34 337.07 80
10 11/07/2019 02:39:53 0.00, -75.31 -0.38, -76.92 184.31 80
11 11/08/2019 02:16:34 0.00, -75.33 0.74, -71.93 386.92 80




NCC Satellite Simultaneous Nadir Overpasses (SNOs) Prediction Service
